Weather in Stekhnovo

Russia / Pskov Oblast     57°08′55″N   29°12′27″E
temp.,
°C
wind,
m/s
gust,
m/s
humid.,
%
clouds,
%
prec.,
mm/h
press.,
hPa
HPBL,
m
18 april, sun
sun1800:00+9ene4127767 0.0 1024393
03:00+7ne3117462 0.0 1024286
06:00+5ne4117452 0.0 1024289
09:00+9ene596013 0.0 1024458
12:00+13ene57460 0.0 10241207
15:00+14ene57395 0.0 10241717
18:00+13ene47445 0.0 10241989
21:00+9ne3116380 0.0 1025338
19 april, mon
mon1900:00+7ene4116723 0.0 1026339
03:00+5ene310785 0.0 1026272
06:00+4ene39855 0.0 1026254
09:00+8ene46719 0.0 1027560
12:00+11ene455437 0.0 10261426
15:00+11ene4552100 0.0 10261554
18:00+9e466596 0.0 1026805
21:00+7e387287 0.0 1026426
20 april, tue
tue2000:00+6e2772100 0.0 1025314
03:00+6ene2669100 0.0 1024232
06:00+4ene377653 0.0 1023299
09:00+6e466697 0.0 1022623
12:00+8e4648100 0.0 10201532
15:00+9ene4646100 0.0 10181843
18:00+8e4566100 0.1 10171126
21:00+5e368574 0.2 1016610
21 april, wed
wed2100:00+4ene2588100 0.0 1014537
03:00+4nne2593100 0.0 1011662
06:00+4n3693100 0.0 1008747
09:00+4nnw3795100 0.1 1005875
12:00+4nnw3696100 1.3 1004713
15:00+4nw2897100 2.8 1004728
18:00+4wnw3992100 0.7 1005609
21:00+4wnw2897100 1.8 1006771
22 april, thu
thu2200:00+3wsw2598100 0.1 1007163
03:00+3wsw2694100 0.1 1009169
06:00+1wsw26945 0.0 1010121
09:00+6sw247117 0.0 1012331
12:00+11sw244767 0.0 10131791
15:00+12ssw244499 0.0 10141785
18:00+13ese245185 0.0 1014941
21:00+8se387684 0.0 1014191